Montevideo, MN

10:37 AM CST on January 18, 2017 (GMT -0600)
Montevideo-Chippewa County

Weather History for KMVE - November, 2012

Change the Weather History Date:

Sunday, November 18, 2012

  Actual Average Record
Temperature  
Mean Temperature 47 °F -  
Max Temperature 59 °F 40 °F 72 °F (1953)
Min Temperature 35 °F 23 °F -6 °F (1959)
Degree Days  
Heating Degree Days 18    
Moisture  
Dew Point 35 °F    
Average Humidity 63    
Maximum Humidity 87    
Minimum Humidity 45    
Precipitation  
Precipitation 0.00 in - - ()
Sea Level Pressure  
Sea Level Pressure 30.01 in    
Wind  
Wind Speed 10 mph (SSW)    
Max Wind Speed 15 mph    
Max Gust Speed 22 mph    
Visibility 10 miles    
Events      
Averages and records for this station are not official NWS values.
T = Trace of Precipitation, MM = Missing Value Source: NWS Daily Summary

Daily Weather History Graph

Daily Weather History Graph

Search for Another Location

Airport or City:

Trip Planner

Search our weather history database for the weather conditions in past years. The results will help you decide how hot, cold, wet, or windy it might be!

Date:

Astronomy

Nov. 18, 2012 Rise Set
Actual Time 7:25 AM CST 4:50 PM CST
Civil Twilight 6:53 AM CST 5:22 PM CST
Nautical Twilight 6:17 AM CST 5:58 PM CST
Astronomical Twilight 5:42 AM CST 6:33 PM CST
Moon 11:49 AM CST 10:15 PM CST
Length of Visible Light 10h 29m
Length of Day
9h 25m
Waxing Crescent, 30% of the Moon is Illuminated
Nov 18
Waxing Crescent
Nov 20
First Quarter
Nov 28
Full
Dec 6
Last Quarter
Dec 13
New

Hourly Weather History & Observations

Time (CST) Temp. Windchill Dew Point Humidity Pressure Visibility Wind Dir Wind Speed Gust Speed Precip Events Conditions
12:14 AM 46.4 °F 40.4 °F 35.6 °F 66% 30.06 in 10.0 mi South 13.8 mph 19.6 mph N/A   Clear
12:34 AM 46.4 °F 41.1 °F 35.6 °F 66% 30.06 in 10.0 mi South 11.5 mph 19.6 mph N/A   Clear
12:54 AM 44.6 °F 39.2 °F 35.6 °F 71% 30.05 in 10.0 mi South 10.4 mph 17.3 mph N/A   Clear
1:14 AM 44.6 °F 37.8 °F 35.6 °F 71% 30.05 in 10.0 mi SSW 15.0 mph 19.6 mph N/A   Clear
1:34 AM 44.6 °F 38.1 °F 35.6 °F 71% 30.05 in 10.0 mi SSW 13.8 mph 18.4 mph N/A   Clear
1:54 AM 44.6 °F 38.1 °F 33.8 °F 66% 30.05 in 10.0 mi South 13.8 mph - N/A   Clear
2:14 AM 44.6 °F 38.4 °F 35.6 °F 71% 30.05 in 10.0 mi SSW 12.7 mph 21.9 mph N/A   Clear
2:34 AM 44.6 °F 38.4 °F 35.6 °F 71% 30.05 in 10.0 mi SSW 12.7 mph 20.7 mph N/A   Clear
2:54 AM 44.6 °F 38.4 °F 35.6 °F 71% 30.05 in 10.0 mi SSW 12.7 mph 19.6 mph N/A   Clear
3:14 AM 44.6 °F 38.8 °F 35.6 °F 71% 30.04 in 10.0 mi SSW 11.5 mph 17.3 mph N/A   Clear
3:34 AM 42.8 °F 36.6 °F 33.8 °F 70% 30.04 in 10.0 mi SSW 11.5 mph 18.4 mph N/A   Clear
3:54 AM 42.8 °F 37.0 °F 33.8 °F 70% 30.03 in 10.0 mi SSW 10.4 mph - N/A   Clear
4:14 AM 42.8 °F 37.0 °F 33.8 °F 70% 30.03 in 10.0 mi SSW 10.4 mph - N/A   Clear
4:34 AM 42.8 °F 37.5 °F 33.8 °F 70% 30.03 in 10.0 mi SSW 9.2 mph - N/A   Clear
4:54 AM 41.0 °F 35.8 °F 33.8 °F 76% 30.04 in 10.0 mi SSW 8.1 mph - N/A   Clear
5:14 AM 41.0 °F 35.8 °F 33.8 °F 76% 30.04 in 10.0 mi SSW 8.1 mph - N/A   Clear
5:34 AM 41.0 °F 35.8 °F 33.8 °F 76% 30.04 in 10.0 mi South 8.1 mph - N/A   Clear
5:54 AM 39.2 °F 33.6 °F 33.8 °F 81% 30.04 in 10.0 mi South 8.1 mph - N/A   Clear
6:13 AM 39.2 °F 35.0 °F 33.8 °F 81% 30.04 in 10.0 mi South 5.8 mph - N/A   Clear
6:34 AM 39.2 °F 35.0 °F 33.8 °F 81% 30.03 in 10.0 mi South 5.8 mph - N/A   Clear
6:54 AM 35.6 °F 31.7 °F 32.0 °F 87% 30.03 in 10.0 mi South 4.6 mph - N/A   Clear
7:14 AM 35.6 °F 31.7 °F 30.2 °F 81% 30.03 in 10.0 mi South 4.6 mph - N/A   Clear
7:34 AM 35.6 °F 30.7 °F 30.2 °F 81% 30.03 in 10.0 mi South 5.8 mph - N/A   Clear
7:54 AM 35.6 °F 29.9 °F 30.2 °F 81% 30.03 in 10.0 mi South 6.9 mph - N/A   Clear
8:14 AM 37.4 °F 33.8 °F 32.0 °F 81% 30.04 in 10.0 mi South 4.6 mph - N/A   Clear
8:34 AM 39.2 °F 34.2 °F 33.8 °F 81% 30.04 in 10.0 mi South 6.9 mph - N/A   Clear
8:54 AM 41.0 °F 36.4 °F 33.8 °F 76% 30.03 in 10.0 mi SSW 6.9 mph - N/A   Clear
9:14 AM 42.8 °F 38.6 °F 33.8 °F 70% 30.03 in 10.0 mi SSW 6.9 mph - N/A   Clear
9:34 AM 44.6 °F 40.7 °F 33.8 °F 66% 30.04 in 10.0 mi SSW 6.9 mph - N/A   Clear
9:54 AM 44.6 °F 40.2 °F 33.8 °F 66% 30.04 in 10.0 mi SSW 8.1 mph - N/A   Clear
10:14 AM 46.4 °F 42.4 °F 33.8 °F 62% 30.04 in 10.0 mi SW 8.1 mph - N/A   Clear
10:34 AM 46.4 °F 41.9 °F 33.8 °F 62% 30.03 in 10.0 mi SSW 9.2 mph - N/A   Clear
10:54 AM 48.2 °F - 35.6 °F 62% 30.03 in 10.0 mi SSW 5.8 mph - N/A   Clear
11:14 AM 51.8 °F - 35.6 °F 54% 30.02 in 10.0 mi SW 8.1 mph - N/A   Clear
11:34 AM 51.8 °F - 35.6 °F 54% 30.02 in 10.0 mi SSW 9.2 mph - N/A   Clear
11:54 AM 53.6 °F - 35.6 °F 51% 30.01 in 10.0 mi SSW 9.2 mph - N/A   Clear
12:14 PM 55.4 °F - 35.6 °F 47% 30.00 in 10.0 mi SSW 9.2 mph - N/A   Clear
12:34 PM 55.4 °F - 37.4 °F 51% 30.00 in 10.0 mi SSW 6.9 mph - N/A   Clear
12:54 PM 57.2 °F - 37.4 °F 48% 29.99 in 10.0 mi SSW 10.4 mph - N/A   Clear
1:14 PM 57.2 °F - 37.4 °F 48% 29.99 in 10.0 mi South 11.5 mph 16.1 mph N/A   Clear
1:34 PM 59.0 °F - 37.4 °F 45% 29.98 in 10.0 mi SSW 9.2 mph - N/A   Clear
1:54 PM 59.0 °F - 37.4 °F 45% 29.98 in 10.0 mi South 12.7 mph - N/A   Clear
2:14 PM 57.2 °F - 37.4 °F 48% 29.98 in 10.0 mi South 12.7 mph - N/A   Clear
2:34 PM 59.0 °F - 37.4 °F 45% 29.97 in 10.0 mi SSW 13.8 mph - N/A   Clear
2:54 PM 59.0 °F - 37.4 °F 45% 29.97 in 10.0 mi SSW 12.7 mph 18.4 mph N/A   Clear
3:14 PM 59.0 °F - 37.4 °F 45% 29.97 in 10.0 mi South 11.5 mph 17.3 mph N/A   Scattered Clouds
3:34 PM 57.2 °F - 37.4 °F 48% 29.97 in 10.0 mi SSW 13.8 mph 20.7 mph N/A   Scattered Clouds
3:54 PM 57.2 °F - 37.4 °F 48% 29.98 in 10.0 mi South 10.4 mph - N/A   Clear
4:14 PM 57.2 °F - 37.4 °F 48% 29.98 in 10.0 mi South 9.2 mph 16.1 mph N/A   Clear
4:34 PM 55.4 °F - 37.4 °F 51% 29.98 in 10.0 mi South 10.4 mph 16.1 mph N/A   Clear
4:54 PM 55.4 °F - 37.4 °F 51% 29.98 in 10.0 mi South 11.5 mph - N/A   Clear
5:14 PM 53.6 °F - 37.4 °F 54% 29.98 in 10.0 mi South 10.4 mph 18.4 mph N/A   Clear
5:34 PM 53.6 °F - 37.4 °F 54% 29.98 in 10.0 mi South 9.2 mph - N/A   Clear
5:54 PM 51.8 °F - 37.4 °F 58% 29.99 in 10.0 mi South 10.4 mph - N/A   Clear
6:13 PM 50.0 °F - 37.4 °F 62% - 10.0 mi South 8.1 mph - N/A   Clear
6:34 PM 50.0 °F - 37.4 °F 62% 29.99 in 10.0 mi South 9.2 mph - N/A   Clear
6:54 PM 51.8 °F - 37.4 °F 58% 29.99 in 10.0 mi South 9.2 mph - N/A   Clear
7:13 PM 51.8 °F - 37.4 °F 58% 30.00 in 10.0 mi South 10.4 mph - N/A   Clear
7:34 PM 51.8 °F - 37.4 °F 58% 30.00 in 10.0 mi SSW 10.4 mph - N/A   Clear
7:54 PM 51.8 °F - 37.4 °F 58% 29.99 in 10.0 mi South 9.2 mph - N/A   Clear
8:13 PM 51.8 °F - 37.4 °F 58% 30.00 in 10.0 mi South 9.2 mph - N/A   Clear
8:34 PM 50.0 °F - 35.6 °F 58% 29.99 in 10.0 mi South 9.2 mph - N/A   Clear
8:54 PM 50.0 °F - 35.6 °F 58% 29.99 in 10.0 mi South 9.2 mph - N/A   Clear
9:14 PM 48.2 °F - 35.6 °F 62% 30.00 in 10.0 mi South 10.4 mph - N/A   Clear
9:34 PM 48.2 °F - 35.6 °F 62% 30.00 in 10.0 mi SSW 10.4 mph - N/A   Clear
9:54 PM 48.2 °F - 35.6 °F 62% 29.99 in 10.0 mi South 9.2 mph - N/A   Clear
10:14 PM 46.4 °F 42.4 °F 35.6 °F 66% 29.99 in 10.0 mi South 8.1 mph - N/A   Clear
10:34 PM 46.4 °F 41.9 °F 35.6 °F 66% 29.99 in 10.0 mi South 9.2 mph - N/A   Clear
10:54 PM 48.2 °F - 35.6 °F 62% 29.98 in 10.0 mi South 9.2 mph - N/A   Clear
11:14 PM 46.4 °F 41.9 °F 35.6 °F 66% 29.98 in 10.0 mi SSW 9.2 mph - N/A   Clear
11:34 PM 46.4 °F 41.5 °F 35.6 °F 66% 29.98 in 10.0 mi SSW 10.4 mph - N/A   Clear
11:54 PM 46.4 °F 41.1 °F 35.6 °F 66% 29.98 in 10.0 mi SSW 11.5 mph - N/A   Clear